Other Public Products
Issued by NWS Grand Forks, ND

Home | Current Version | Previous Version | Graphics & Text | Print | Product List | Glossary On
Versions: 1 2 3 4 5 6 7 8 9 10 11 12 13 14 15 16 17 18 19 20 21 22 23 24 25 26 27 28 29 30 31 32 33 34 35 36 37 38 39 40 41 42 43 44 45 46 47 48 49 50
000
FPUS83 KFGF 290010
OPUFGF
PRAIRIE TO PINES WEATHER ROUNDUP
NATIONAL WEATHER SERVICE EASTERN NORTH DAKOTA/GRAND FORKS ND
700 PM CDT TUE MAR 28 2017

 **SATELLITE DATA USED TO AUGMENT SKY COVER AT AUTOMATED STATIONS**
 *****  WEATHER ACROSS EASTERN NORTH DAKOTA  *****

CITY           SKY/WX    TMP DP  RH WIND       PRES   REMARKS
GRAND FORKS    MOCLDY    51  43  74 NE7       30.18R
6HR MIN TEMP:  49; 6HR MAX TEMP:  55;

GRAND FORKS AF FAIR      49  43  80 N5        30.19R
GRAND CITY NWS NOT AVBL
BUXTON         NOT AVBL
DEVILS LAKE    FAIR      48  40  73 E13       30.17R
6HR MIN TEMP:  47; 6HR MAX TEMP:  51;

FARGO          FAIR      56  39  53 NE5       30.16R
6HR MIN TEMP:  49; 6HR MAX TEMP:  59;

WAHPETON ARPT  FAIR      54  37  54 CALM      30.16R
$$

 *****  WEATHER ACROSS CENTRAL AND WESTERN NORTH DAKOTA  *****

CITY           SKY/WX    TMP DP  RH WIND       PRES   REMARKS
JAMESTOWN      FAIR      51  41  68 E7        30.15R
6HR MIN TEMP:  47; 6HR MAX TEMP:  56;

BISMARCK       FAIR      60  36  40 S13       30.10R
6HR MIN TEMP:  50; 6HR MAX TEMP:  63;

MINOT          PTSUNNY   50  43  77 E12       30.08R
6HR MIN TEMP:  44; 6HR MAX TEMP:  54;

MINOT AFB      PTSUNNY   47  41  81 SE13      30.07S
6HR MIN TEMP:  39; 6HR MAX TEMP:  47;

GARRISON         N/A     54  38  54 SE12      30.06S
6HR MIN TEMP:  40; 6HR MAX TEMP:  58;

WILLISTON      LGT RAIN  45  42  89 W9        30.10R FOG
6HR MIN TEMP:  45; 6HR MAX TEMP:  58; 6HR PCP: TRACE;

DICKINSON      PTSUNNY   57  33  40 SE15G22   30.02R
6HR MIN TEMP:  55; 6HR MAX TEMP:  61;

HETTINGER      CLOUDY    53  40  61 S8        30.09R
6HR MIN TEMP:  53; 6HR MAX TEMP:  60;

$$

 *****  OTHER OBSERVATIONS NORTHEAST NORTH DAKOTA  *****

CITY           SKY/WX    TMP DP  RH WIND       PRES   REMARKS
WALHALLA       NOT AVBL
LANGDON        MOCLDY    39  37  93 E8        30.19R
CAVALIER       FAIR      41  36  81 N8        30.20S
GRAFTON        FAIR      45  43  93 N10       30.21R
CANDO          NOT AVBL
FORT TOTTEN      N/A     51  38  60 E7        29.95S
ROLLA          FAIR      39  39 100 E10       30.16S
RUGBY          NOT AVBL
 ***** THE ABOVE OBSERVATIONS ARE NON NWS ARE NOT QUALITY
        CONTROLLED AND MAY MIS-REPORT RAIN FOR SNOW...
$$

 *****  OTHER OBSERVATIONS SOUTHEAST NORTH DAKOTA *****

CITY           SKY/WX    TMP DP  RH WIND       PRES   REMARKS
COOPERSTOWN    FAIR      48  43  81 E8        30.18R
VALLEY CITY    FAIR      52  39  62 E6        30.18R
OAKES          NOT AVBL
GWINNER        CLEAR     54  41  62 MISG      30.15R
SHEYENNE NWR     N/A     55  38  52 NE5       29.95S
BUFFALO        NOT AVBL
WYNDMERE       NOT AVBL
 ***** THE ABOVE OBSERVATIONS ARE NON NWS ARE NOT QUALITY
       CONTROLLED AND MAY MIS-REPORT RAIN FOR SNOW...
$$

  *****  WEATHER ACROSS NORTHERN MINNESOTA  *****

CITY           SKY/WX    TMP DP  RH WIND       PRES   REMARKS
FLAG ISLAND    CLOUDY    45  21  39 NE6       30.22R
WARROAD        FAIR      41  30  65 NE9       30.21S
ROSEAU         FAIR      46  36  66 E6        30.21R
HALLOCK        FAIR      45  39  81 N7        30.20R
THF RVR FALLS  FAIR      51  36  56 N7        30.19R
6HR MIN TEMP:  51; 6HR MAX TEMP:  54;

HALSTAD          N/A     54  45  70 N5          N/A
FOSSTON        FAIR      54  43  66 N5        30.17R
BAUDETTE       FAIR      46  28  49 N8        30.19S
6HR MIN TEMP:  46; 6HR MAX TEMP:  53;

WASKISH        FAIR      52  34  50 N5        30.18R
CROOKSTON      FAIR      54  41  62 CALM      30.18S
$$
  *****  WEATHER ACROSS CENTRAL AND WEST MINNESOTA  *****

CITY           SKY/WX    TMP DP  RH WIND       PRES   REMARKS
BEMIDJI        FAIR      53  30  41 N7        30.16R
PARK RAPIDS    FAIR      59  28  30 E7        30.15R
6HR MIN TEMP:  57; 6HR MAX TEMP:  62;

WADENA         FAIR      57  34  41 CALM      30.14R
DETROIT LAKES  FAIR      54  37  54 N6        30.17R
MOORHEAD       FAIR      54  45  71 N3        30.17R
FERGUS FALLS   FAIR      55  39  54 N5        30.18R
ELBOW LAKE     FAIR      56  38  50 N5        30.15R
6HR MIN TEMP:  53; 6HR MAX TEMP:  59;

MORRIS MN      FAIR      59  36  41 CALM      30.13R
STAPLES        FAIR      59  28  31 CALM      30.14R
WHEATON        FAIR      57  37  47 N3        30.16S
$$
  *****  WEATHER ELSEWHERE ACROSS MINNESOTA  *****

CITY           SKY/WX    TMP DP  RH WIND       PRES   REMARKS
DULUTH         FAIR      51  31  46 SE9       30.15R
6HR MIN TEMP:  51; 6HR MAX TEMP:  59;

INTRNTL FALLS  FAIR      50  26  39 NE6       30.18F
6HR MIN TEMP:  50; 6HR MAX TEMP:  54;

ELY            FAIR      52  25  35 NE3       30.17R
CLOQUET        FAIR      55  25  30 E3        30.15R
BRAINERD       FAIR      59  30  33 CALM      30.14R
6HR MIN TEMP:  57; 6HR MAX TEMP:  63;

HIBBING        FAIR      52  29  41 N6        30.15R
6HR MIN TEMP:  52; 6HR MAX TEMP:  57; 6HR PCP: TRACE;

ALEXANDRIA     FAIR      58  33  39 CALM      30.15R
6HR MIN TEMP:  57; 6HR MAX TEMP:  62;

SAINT CLOUD    FAIR      59  28  30 CALM      30.14R
6HR MIN TEMP:  58; 6HR MAX TEMP:  63;

MINNEAPOLIS    FAIR      61  28  28 E6        30.13R
6HR MIN TEMP:  58; 6HR MAX TEMP:  64;

$$

  *****  WEATHER ACROSS SOUTH DAKOTA  *****

CITY           SKY/WX    TMP DP  RH WIND       PRES   REMARKS
SIOUX FALLS    CLOUDY    57  38  48 E12       30.11R
6HR MIN TEMP:  56; 6HR MAX TEMP:  63;

BROOKINGS      FAIR      56  36  47 E9        30.11
WATERTOWN      FAIR      54  38  54 E7        30.12R
6HR MIN TEMP:  54; 6HR MAX TEMP:  59;

HURON          FAIR      57  37  47 SE5       30.11R
6HR MIN TEMP:  55; 6HR MAX TEMP:  62;

SISSETON         N/A     56  41  57 E6        30.13S
ABERDEEN       FAIR      55  33  43 E8        30.13R
6HR MIN TEMP:  54; 6HR MAX TEMP:  60;

MITCHELL       MOCLDY    58  37  45 E9        30.11R
PIERRE         CLOUDY    52  43  71 W9        30.09R
6HR MIN TEMP:  52; 6HR MAX TEMP:  56;

MOBRIDGE       CLOUDY    56  38  50 SE9       30.08R
RAPID CITY     LGT RAIN  45  42  89 S3        30.08R
6HR MIN TEMP:  42; 6HR MAX TEMP:  46; 6HR PCP:  0.15;

$$

  *****  SOME WEATHER IN NEARBY STATES *****

CITY           SKY/WX    TMP DP  RH WIND       PRES   REMARKS
GLASGOW MT     FAIR      58  24  27 W10       30.03S
6HR MIN TEMP:  41; 6HR MAX TEMP:  60;

GREAT FALLS MT FAIR      51  21  30 W17G25    30.03F
6HR MIN TEMP:  48; 6HR MAX TEMP:  53;

CHEYENNE WY    RAIN      39  37  92 NE14      29.97R FOG
6HR MIN TEMP:  38; 6HR MAX TEMP:  42; 6HR PCP:  0.04;

SCOTTSBLUFF NE CLOUDY    44  40  85 E10       30.02R
6HR MIN TEMP:  44; 6HR MAX TEMP:  47; 6HR PCP:  0.33;

OMAHA NE       CLOUDY    51  41  68 E9        30.10R
6HR MIN TEMP:  49; 6HR MAX TEMP:  51;

DES MOINES IA  CLOUDY    52  42  69 NE9       30.10S
6HR MIN TEMP:  51; 6HR MAX TEMP:  53;

DAVENPORT IA   CLOUDY    47  39  74 NE10      30.15R
6HR MIN TEMP:  47; 6HR MAX TEMP:  52;

CHICAGO IL     MOCLDY    43  36  76 NE9       30.17R
6HR MIN TEMP:  43; 6HR MAX TEMP:  50;

EAU CLAIRE WI  FAIR      58  23  26 E7        30.14R
6HR MIN TEMP:  53; 6HR MAX TEMP:  63;

LA CROSSE WI   FAIR      59  38  45 NW5       30.13S
6HR MIN TEMP:  54; 6HR MAX TEMP:  62;

$$

  *****  SOME NATIONAL WEATHER *****

CITY           SKY/WX    TMP DP  RH WIND       PRES   REMARKS
LA GUARDIA NY  LGT RAIN  42  38  85 NE15      29.91S FOG


USA.gov is the U.S. government's official web portal to all federal, state and local government web resources and services.